www.pogodaiklimat.ru

Погода и климат >> Архив погоды >> Пакистан >> Nokkundi


ПОГОДА в Nokkundi

  • Прогноз погоды в Nokkundi
  • Монитор погоды в Nokkundi
  • Климат города

АРХИВ ПОГОДЫ в Nokkundi

Время (UTC), дата Ветер
(напр.,м/с)
 
Видим.   Явления Облачность Т
(С)
Тd
(С)
f
(%)
Тe
(С)
Тes
(С)
Комфортность P
(гПа)
Po
(гПа)
Тmin
(С)
Tmax
(С)
R
(мм)
R24
(мм)
S
(см)
09 13.09 СЗ 4 2000 м пыльный позёмок ясно +41.5 -3.4 6 +37 +48 очень
жарко
995.7 1000.0
12 13.09 СЗ 5 2000 м пыльный позёмок ясно +41.0 -5.4 5 +37 +39 очень
жарко
994.8 1024.4 +42.1
15 13.09 СЗ 2 2000 м пыль ясно +37.0 -0.3 10 +33 +33 жарко 996.7 1000.0
18 13.09 СЗ 5 2000 м пыльный позёмок ясно +33.0 -0.4 12 +30 +30 жарко 999.3 926.9
21 13.09 СЗ 5 1000 м пыльный позёмок ясно +29.5 -0.9 14 +27 +27 жарко 999.6 914.8
00 14.09 СЗ 5 1000 м пыльный позёмок ясно +25.5 -2.3 16 +23 +23 комфорт 1001.5 927.2
03 14.09 СЗ 5 2000 м пыльный позёмок ясно +26.0 -1.1 17 +24 +25 комфорт 1001.6 927.5 +24.1
06 14.09 СЗ 6 1000 м пыльный позёмок ясно +32.0 -0.9 12 +29 +34 жарко 1002.8 929.9
09 14.09 СЗ 6 1000 м пыльный позёмок ясно +37.0 -2.8 8 +33 +40 жарко 998.3 1000.0
12 14.09 СЗ 6 1000 м пыльный позёмок ясно +37.0 -2.8 8 +33 +34 жарко 997.1 1023.6 +38.5
15 14.09 СЗ 5 1000 м пыльный позёмок ясно +33.0 -2.7 10 +29 +29 жарко 999.6 1000.0
18 14.09 СЗ 5 1000 м пыльный позёмок ясно +29.5 -0.9 14 +27 +27 жарко 1002.0 928.7
21 14.09 СЗ 5 1000 м пыльный позёмок ясно +26.5 -2.0 15 +24 +24 комфорт 1002.3 916.6
00 15.09 СЗ 5 1000 м пыльный позёмок ясно +23.5 -2.9 17 +22 +22 комфорт 1003.8 928.8
03 15.09 СЗ 4 4000 м пыль ясно +25.5 -2.3 16 +23 +25 комфорт 1005.2 930.5 +23.1
06 15.09 СЗ 3 4000 м пыль ясно +29.5 -0.9 14 +27 +38 жарко 1005.1 931.5
09 15.09 СЗ 2 4000 м пыль ясно +34.0 -2.1 10 +30 +46 жарко 1002.0 1000.0
12 15.09 СЗ 3 2000 м пыль ясно +34.5 -3.1 9 +31 +34 жарко 1000.4 1023.1 +35.5
15 15.09 СЗ 3 2000 м пыль ясно +31.0 -3.7 10 +27 +27 жарко 1001.8 1000.0
18 15.09 СЗ 1 2000 м пыль ясно +26.5 -4.4 13 +24 +24 комфорт 1004.3 930.2
21 15.09 СЗ 1 2000 м пыль ясно +24.0 -3.9 15 +22 +22 комфорт 1004.7 918.7
00 16.09 СЗ 3 2000 м пыль ясно +22.5 -3.1 18 +21 +21 комфорт 1006.1 930.6
03 16.09 С 1 10 км ясно +26.0 -1.1 17 +24 +26 комфорт 1005.4 930.8 +22.1
06 16.09 СЗ 3 10 км ясно +31.0 -1.3 12 +28 +40 жарко 1004.3 931.2
09 16.09 СЗ 3 10 км ясно +35.0 -4.1 8 +31 +45 жарко 1000.8 1000.0
12 16.09 З 2 10 км ясно +35.5 -5.2 7 +31 +35 жарко 999.0 927.3 +36.5
15 16.09 СЗ 1 4000 м ясно +31.0 -3.7 10 +27 +27 жарко 1000.7 903.7
18 16.09 СЗ 1 4000 м ясно +25.5 -4.7 13 +23 +23 комфорт 1002.7 928.3
21 16.09 С 2 4000 м ясно +23.5 -5.3 14 +22 +22 комфорт 1003.0 1000.0
00 17.09 СЗ 1 4000 м ясно +22.0 -6.9 14 +20 +20 1004.4 976.3
03 17.09 С 2 10 км ясно +24.0 -3.9 15 +22 +24 комфорт 1003.7 928.8 +20.0
06 17.09 З 1 10 км ясно +34.0 -2.1 10 +30 +46 жарко 1001.7 929.4
09 17.09 З 1 10 км ясно +37.0 -2.8 8 +33 +53 опасность
солнечного
удара
998.9 1000.0
12 17.09 З 1 10 км ясно +38.0 -4.8 6 +34 +38 очень
жарко
997.1 926.1 +39.0
15 17.09 С 2 4000 м ясно +32.0 -5.9 8 +28 +28 жарко 999.4 902.6
18 17.09 СВ 1 4000 м ясно +28.5 -6.3 10 +25 +25 комфорт 1001.4 927.9
21 17.09 СВ 1 4000 м ясно +25.5 -7.4 11 +23 +23 комфорт 1002.1 1000.0
00 18.09 С 1 4000 м ясно +23.5 -5.3 14 +22 +22 комфорт 1003.2 976.4
03 18.09 С 1 10 км ясно +25.0 -6.2 12 +23 +25 комфорт 1003.6 929.0 +22.1
06 18.09 В 1 10 км ясно +35.5 -2.5 9 +32 +47 жарко 1001.8 929.8
09 18.09 ЮЗ 1 10 км ясно +38.0 -2.1 8 +34 +52 опасность
солнечного
удара
999.3 1000.0
12 18.09 СЗ 5 10 км ясно +39.0 -4.0 6 +35 +36 очень
жарко
997.3 1023.6 +40.0
15 18.09 СЗ 2 4000 м ясно +33.0 -5.3 8 +29 +29 жарко 1000.1 1000.0
18 18.09 СЗ 2 4000 м ясно +28.0 -8.0 9 +25 +25 комфорт 1002.7 928.8
21 18.09 СЗ 1 4000 м ясно +25.5 -7.4 11 +23 +23 комфорт 1002.7 916.8
00 19.09 СЗ 2 4000 м ясно +23.5 -6.7 13 +22 +22 комфорт 1003.9 928.8
03 19.09 СЗ 3 10 км ясно +25.5 -4.7 13 +23 +24 комфорт 1004.0 929.5 +22.1
06 19.09 СЗ 4 10 км ясно +34.0 -2.1 10 +30 +40 жарко 1002.3 930.0
09 19.09 В 1 10 км ясно +38.0 -4.8 6 +34 +52 опасность
солнечного
удара
999.2 1000.0
12 19.09 СЗ 3 4000 м пыль ясно +37.0 -5.6 6 +33 +36 жарко 998.1 1023.7 +39.1
15 19.09 СЗ 2 4000 м пыль ясно +33.0 -5.3 8 +29 +29 жарко 1000.0 1000.0
18 19.09 СЗ 1 4000 м пыль ясно +30.5 -2.7 11 +27 +27 жарко 1001.2 928.3
21 19.09 СЗ 2 4000 м ясно +28.0 -2.6 13 +25 +25 комфорт 1001.8 1000.0
00 20.09 СЗ 2 4000 м ясно +25.5 -2.3 16 +23 +23 комфорт 1003.2 928.6
03 20.09 СЗ 3 10 км ясно +26.5 -2.0 15 +24 +25 комфорт 1003.4 929.3 +23.1

 

Местоположение метеостанции Nokkundi (Пакистан): широта 28.82 долгота 62.75 высота над уровнем моря 683 м.

В архиве по умолчанию представлена погода в Nokkundi за последнюю неделю. Архивные данные за месяц целиком и за предыдущие месяцы, начиная с января 2011 года, Вы можете получить, выбрав интересующий диапазон дат из раскрывающегося списка и нажав кнопку "Ввод!".


*Определитесь, кто Вы:
робот инопланетянин человек

Внимание! Время в таблицах - всемирное. Для получения местного времени необходимо прибавить поправку, которая в Nokkundi равна 5 ч.

Смотрите также архив погоды в соседних городах и на ближайших метеорологических станциях:

Погода в Dal Bandin (Пакистан) (161 км)
Погода в Saravan (Иран) (171 км)
Погода в Zahedan (Иран) (196 км)
Погода в Panjgur (Пакистан) (245 км)
Погода в Iranshahr (Иран) (270 км)
Погода в Zabol (Иран) (277 км)
Погода в Lashkargah (Афганистан) (341 км)
Погода в Kalat (Пакистан) (374 км)
Погода в Khuzdar (Пакистан) (396 км)
Погода в Nehbandan (Иран) (399 км)

Пояснения к столбцам:

Ветер - указаны скорость ветра в м/с - средняя за 10 мин, порывы в срок и между сроками (в фигурных скобках) и направление, откуда дует ветер: С - северный, СВ - северо-восточный, В - восточный, ЮВ - юго-восточный, Ю - южный, ЮЗ - юго-западный, З - западный, СЗ - северо-западный.
Видимость - горизонтальная дальность видимости в метрах или километрах. При видимости от 1 до 10 км при отсутствии осадков обычно наблюдается дымка, при ухудшении видимости до 1 км и менее - туман. В сухую погоду видимость может ухудшаться дымом, пылью или мглою.
Явления - указаны атмосферные явления, наблюдавшиеся в срок или в последний час перед сроком; фигурными скобками обозначены явления, наблюдавшиеся между сроками (за 1-3 часа до срока); квадратными скобками обозначены град или гололедные отложения с указанием их диаметра в мм.
Облачность - указаны через наклонную черту общая и нижняя облачность в баллах и высота нижней границы облаков в метрах; квадратными скобками обозначены формы облаков: Ci - перистые, Cs - перисто-слоистые, Cc - перисто-кучевые, Ac - высококучевые, As - высокослоистые, Sc - слоисто-кучевые, Ns - слоисто-дождевые, Cu - кучевые, Cb - кучево-дождевые. Подробнее классификацию облаков см. в Атласе облаков (PDF).
T - Температура воздуха - температура, измеренная на высоте 2 м над землей.
Td - Температура точки росы - температура, при понижении до которой содержащийся в воздухе водяной пар достигнет насыщения.
f - Относительная влажность воздуха - влажноcть воздуха, измеренная на высоте 2 м над землей.
Te - Эффективная температура - температура, которую ощущает одетый по сезону человек в тени. Характеристика душности погоды. При расчете учитывается влияние влажности воздуха и скорости ветра на теплоощущения человека.
Tes - Эффективная температура на солнце - температура, которую ощущает человек, с поправкой на солнечный нагрев. Характеристика знойности погоды. Зависит от высоты солнца над горизонтом, облачности и скорости ветра. Ночью, в пасмурную погоду, а также при ветре 12 м/с и более поправка равна нулю.
P - Атмосферное давление - приведенное к уровню моря атмосферное давление.
Po - Атмосферное давление - измеренное на уровне метеостанции атмосферное давление.
Tmin - Минимальная температура - минимум температуры воздуха на высоте 2 м над землей.
Tmax - Максимальная температура - максимум температуры воздуха на высоте 2 м над землей.
R - Количество осадков - Количество выпавших осадков за период времени, мм. При наведении курсора мыши на число - период времени, за который выпало указанное количество осадков.
R24 - Количество осадков - Количество выпавших осадков за 24 часа, мм.
S - Снежный покров - Высота снежного покрова, см. При наведении курсора мыши на число - состояние снежного покрова и степень покрытия местности в баллах.